Tracking 29510 objects as of 16-Sep-2024
HD Live streaming from Space Station
objects crossing your sky now

FENGYUN 1C DEB

Track FENGYUN 1C DEB now!
10-day predictions


NORAD ID: 41822
Int'l Code: 1999-025EXZ
Perigee: 790.5 km
Apogee: 876.7 km
Inclination: 98.8 °
Period: 101.4 minutes
Semi major axis: 7204 km
RCS: Unknown
Launch date: May 10, 1999
Source: People's Republic of China (PRC)
Launch site: Taiyaun Space Center, China (TSC)

Note: This is SATELLITE DEBRIS
Your satellite tracking list
Your tracking list is empty




NASA's NSSDC Master Catalog

Two Line Element Set (TLE):
1 41822U 99025EXZ 24260.12022667  .00010380  00000-0  48378-2 0  9996
2 41822  98.7660 323.5476 0059772  91.2825 269.5199 14.19670495409372
Source of the keplerian elements: AFSPC